Tracking 28779 objects as of 15-Apr-2024
HD Live streaming from Space Station
objects crossing your sky now

FENGYUN 1C DEB

Track FENGYUN 1C DEB now!
10-day predictions


NORAD ID: 37476
Int'l Code: 1999-025EJW
Perigee: 859.1 km
Apogee: 2,622.7 km
Inclination: 98.9 °
Period: 121.2 minutes
Semi major axis: 8111 km
RCS: 0.002 m2 (small)
Launch date: May 10, 1999
Source: People's Republic of China (PRC)
Launch site: Taiyaun Space Center, China (TSC)

Note: This is SATELLITE DEBRIS
Your satellite tracking list
Your tracking list is empty




NASA's NSSDC Master Catalog

Two Line Element Set (TLE):
1 37476U 99025EJW 24104.80224782  .00001621  00000-0  43911-2 0  9996
2 37476  98.9468 313.7955 1087037 324.1459  29.1111 11.88286711602130
Source of the keplerian elements: AFSPC